780  
ASUS43 KDTX 292310  
RWRMI  
MICHIGAN HOURLY REGIONAL WEATHER ROUNDUP  
NATIONAL WEATHER SERVICE DETROIT/PONTIAC MI  
700 PM EDT FRI APR 29 2016  
 
NOTE: "FAIR" INDICATES FEW OR NO CLOUDS BELOW 12,000 FEET WITH NO  
SIGNIFICANT WEATHER AND/OR TO VISIBILITY
.  
 
MIZ047>049-052>055-059>063-066>070-074>076-081>083-300000-  
SOUTHEAST LOWER MICHIGAN  
 
CITY SKY/WX TMP DP RH WIND PRES REMARKS
 
ADRIAN CLOUDY 51 39 63 E5 30.12R  
ALMA PTSUNNY 49 37 62 E8 30.14R  
ANN ARBOR CLOUDY 50 37 61 SE5 30.12R  
BAD AXE MOSUNNY 48 29 48 CALM 30.15R  
CARO MOSUNNY 53 35 50 E5 30.10F  
DETROIT CITY CLOUDY 50 33 52 NE8 30.13R  
DETROIT CLOUDY 51 36 56 N5 30.13R  
FLINT CLOUDY 52 35 52 E6 30.13R  
GROSSE ILE CLOUDY 50 37 62 CALM 30.11R  
HILLSDALE CLOUDY 52 39 60 CALM 30.10R  
HOWELL CLOUDY 49 38 65 CALM 30.11R  
 
CITY SKY/WX TMP DP RH WIND PRES REMARKS
 
JACKSON CLOUDY 51 38 60 N7 30.11R  
LAMBERTVILLE CLOUDY 50 39 66 E5 30.13R  
LANSING CLOUDY 49 38 65 E5 30.13R  
LAPEER FAIR 51 31 45 NE6 30.11S  
MASON CLOUDY 49 40 70 NE5 30.12R  
MONROE CLOUDY 49 38 65 SE6 30.13R  
MT. CLEMENS CLOUDY 50 34 54 E6 30.11R  
PONTIAC CLOUDY 50 35 56 NE6 30.10R  
PORT HOPE N/A 43 35 73 NE3 30.12F  
PORT HURON CLOUDY 46 32 57 NE8 30.13F  
TRI CITIES SUNNY 53 35 50 NE10 30.13S  
MIDLAND FAIR 52 34 51 E9 30.12F  
TROY CLOUDY 52 33 47 E6 30.13R  
SAGINAW HB SUNNY 50 36 57 N12 30.12F  

 
MIZ043>046-050>051-056>058-064>065-071>073-077>080-300000-  
SOUTHWEST LOWER MICHIGAN  
 
CITY SKY/WX TMP DP RH WIND PRES REMARKS
 
BATTLE CREEK CLOUDY 51 40 65 NE8 30.12R  
BENTON HARBOR CLOUDY 46 40 79 VRB3 30.12S  
BIG RAPIDS SUNNY 55 32 42 SE10 30.11R  
COLDWATER CLOUDY 53 42 66 N3 30.10R  
FREMONT FAIR 55 30 38 SE5 30.11R  
HOLLAND CLOUDY 48 42 80 W6 30.14R  
GRAND RAPIDS CLOUDY 51 39 63 SE7 30.13R  
IONIA CLOUDY 48 38 67 E6 30.13R  
KALAMAZOO CLOUDY 53 40 61 CALM 30.12R  
LUDINGTON SUNNY 50 34 54 N8 30.12S  
MARSHALL CLOUDY 52 39 62 CALM 30.11R  
MOUNT PLEASANT SUNNY 54 32 44 E8 30.11S  
MUSKEGON PTSUNNY 49 37 63 W7 30.13R  
SOUTH HAVEN CLOUDY 46 40 82 N6 30.12S  

 
MIZ016>042-300000-  
NORTHERN LOWER MICHIGAN  
 
CITY SKY/WX TMP DP RH WIND PRES REMARKS
 
ALPENA SUNNY 50 32 50 E10 30.13S  
BEAVER ISLAND SUNNY 50 32 49 NW6 30.14R  
BELLAIRE SUNNY 60 28 29 E3 30.09R  
CADILLAC MOSUNNY 55 34 45 SE5 30.10R  
CHARLEVOIX SUNNY 54 31 41 N7 30.15R  
FRANKFORT SUNNY 54 34 46 N8 30.10S  
GAYLORD SUNNY 55 28 35 NE10 30.10R  
GRAYLING SUNNY 55 28 35 NE8 30.12R  
HARBOR SPRINGS SUNNY 55 29 36 NE10 30.13R  
HOUGHTON LAKE CLOUDY 55 29 36 CALM 30.11R  
MANISTEE SUNNY 50 32 50 W8 30.12S  
OSCODA SUNNY 47 29 49 SE5 30.15R  
PELLSTON SUNNY 56 28 34 E8 30.12F  
ROGERS CITY SUNNY 48 31 52 NE6 30.14F  
TRAVERSE CITY MOSUNNY 55 32 41 NE8 30.09R  

 
MIZ007>008-015-300000-  
EASTERN UPPER MICHIGAN  
 
CITY SKY/WX TMP DP RH WIND PRES REMARKS
 
KINROSS N/A 52 30 43 N9 30.14S  
MACKINAC ISLAN SUNNY 52 28 39 E3 30.13R  
NEWBERRY SUNNY 55 32 42 N12 30.12S  
S. S. MARIE SUNNY 54 29 38 W8 30.13R  
MUNISING N/A 42 35 76 N9 30.15F  

 
MIZ004>006-011>014-085-300000-  
CENTRAL UPPER MICHIGAN  
 
CITY SKY/WX TMP DP RH WIND PRES REMARKS
 
MANISTIQUE SUNNY 53 27 36 CALM 30.13R  
ESCANABA SUNNY 54 27 35 SW9 30.14R  
MENOMINEE SUNNY 54 25 32 E5 30.14S  
SAWYER-GWINN SUNNY 46 30 53 NE14 30.12R  

 
MIZ001>003-009>011-084-300000-  
WESTERN UPPER MICHIGAN  
 
CITY SKY/WX TMP DP RH WIND PRES REMARKS
 
IRON MOUNTAIN CLOUDY 58 23 26 CALM 30.10R  
HOUGHTON MOSUNNY 49 30 48 SE8 30.17R  
COPPER HARBOR N/A 41 36 82 CALM 30.19S  
IRONWOOD N/A 46 30 53 NE7 30.14S  

 
 
ABBREVIATIONS USED IN REMARKS  
TC - TEMPERATURE IN CELSIUS  
WCI - WIND CHILL INDEX  
HX - HEAT INDEX  
VSB - VISIBILITY  
 
 
 
CLICK HERE TO GO TO PREVIOUS BULLETINS.

The Nexlab MI Page Main Text Page